SV1LH-1 Melissia GR current weather conditions

sailwx.info

Wind from 292

Air temperature 30.0° C
Dewpoint 14.9° C

Last reported at 2014-Aug-01 06:50 UTC.
Time now 2014-Aug-01 07:59 UTC

Location: N 38°03' E 023°51'.
View on Google Maps.

See reports from other nearby stations

  
Tides and Currents Weather Stations Pressure Air Temp Water Temp Dewpoint Dewpoint Depression Visibility Wind Speed Wind Dir Waves Ship Positions
date/time (UTC)wind fromknots sea level pressurealtimeterstation pressurevisibilityair tempwater tempwave heightnotes
2014-Aug-01 06:50 292 30.0
2014-Aug-01 06:45 067 28.9
2014-Aug-01 06:40 157 1 gusting 2 28.3
2014-Aug-01 06:35 157 1 gusting 3 28.9
2014-Aug-01 06:30 202 1 gusting 3 28.9
2014-Aug-01 06:25 270 0 gusting 2 28.9
2014-Aug-01 06:20 292 3 gusting 6 28.9
2014-Aug-01 06:15 202 2 gusting 5 28.3
2014-Aug-01 06:10 202 2 gusting 4 28.9
2014-Aug-01 06:05 225 2 gusting 2 28.9
2014-Aug-01 06:00 247 2 gusting 4 28.9
2014-Aug-01 05:55 247 3 gusting 5 28.9
2014-Aug-01 05:50 225 2 gusting 6 28.9
2014-Aug-01 05:45 247 0 gusting 2 28.3
2014-Aug-01 05:40 270 2 gusting 5 28.3
2014-Aug-01 05:35 225 1 gusting 2 28.3
2014-Aug-01 05:30 202 1 gusting 3 27.8
2014-Aug-01 05:25 225 27.8
2014-Aug-01 05:20 225 1 gusting 2 27.2
2014-Aug-01 05:15 202 1 gusting 2 27.2
2014-Aug-01 05:10 270 2 gusting 3 26.7
2014-Aug-01 05:05 292 1 gusting 3 26.7
2014-Aug-01 05:00 270 26.1
2014-Aug-01 04:55 225 25.6
2014-Aug-01 04:50 157 25.0
2014-Aug-01 04:45 135 24.4
2014-Aug-01 04:40 270 23.9
2014-Aug-01 04:35 112 23.3
2014-Aug-01 04:30 090 22.8
2014-Aug-01 04:25 067 22.2
2014-Aug-01 04:20 045 21.7
2014-Aug-01 04:15 090 0 gusting 1 21.1
2014-Aug-01 04:10 090 0 gusting 1 20.6
2014-Aug-01 04:05 067 0 gusting 1 20.6
2014-Aug-01 04:00 045 20.6
2014-Aug-01 03:55 090 20.6
2014-Aug-01 03:50 337 20.0
2014-Aug-01 03:45 112 20.0
2014-Aug-01 03:40 090 20.0
2014-Aug-01 03:35 292 20.0
2014-Aug-01 03:30 270 20.0
2014-Aug-01 03:25 045 20.0
2014-Aug-01 03:20 090 20.0
2014-Aug-01 03:15 20.0
2014-Aug-01 03:10 292 20.0
2014-Aug-01 03:05 045 20.0
2014-Aug-01 03:00 090 20.0
2014-Aug-01 02:55 20.6
2014-Aug-01 02:50 022 20.6
2014-Aug-01 02:45 090 20.0
2014-Aug-01 02:40 20.0
2014-Aug-01 02:35 292 20.6
2014-Aug-01 02:30 20.6
2014-Aug-01 02:25 090 20.6
2014-Aug-01 02:20 090 20.6
2014-Aug-01 02:15 315 20.6
2014-Aug-01 02:10 090 20.6
2014-Aug-01 02:05 022 20.6
2014-Aug-01 02:00 270 20.6
2014-Aug-01 01:55 090 20.6
2014-Aug-01 01:50 112 20.6
2014-Aug-01 01:45 292 20.6
2014-Aug-01 01:40 292 21.1
2014-Aug-01 01:35 315 21.1
2014-Aug-01 01:30 270 21.1
2014-Aug-01 01:25 090 21.1
2014-Aug-01 01:20 112 0 gusting 0 21.1
2014-Aug-01 01:15 090 21.1
2014-Aug-01 01:10 090 0 gusting 1 21.1
2014-Aug-01 01:05 090 21.7
2014-Aug-01 01:00 21.7
2014-Aug-01 00:55 21.7
2014-Aug-01 00:50 21.7
2014-Aug-01 00:45 022 0 gusting 1 21.7
2014-Aug-01 00:40 022 21.7
2014-Aug-01 00:35 315 0 gusting 0 21.1
2014-Aug-01 00:30 022 0 gusting 1 21.1
2014-Aug-01 00:25 022 21.1
2014-Aug-01 00:20 090 0 gusting 1 21.7
2014-Aug-01 00:15 112 0 gusting 1 21.7
2014-Aug-01 00:10 090 21.7
2014-Aug-01 00:05 112 1 gusting 1 21.7
2014-Aug-01 00:00 112 21.7
2014-Jul-31 23:55 090 0 gusting 0 21.7
2014-Jul-31 23:50 090 0 gusting 1 21.7
2014-Jul-31 23:45 090 1 gusting 1 21.7
2014-Jul-31 23:40 112 0 gusting 0 21.7
2014-Jul-31 23:35 090 0 gusting 1 21.7
2014-Jul-31 23:30 090 21.7
2014-Jul-31 23:25 090 22.2
2014-Jul-31 23:20 157 22.2
2014-Jul-31 23:15 112 22.2
2014-Jul-31 23:10 090 0 gusting 1 22.2
2014-Jul-31 23:05 157 22.8
2014-Jul-31 23:00 112 22.8
2014-Jul-31 22:55 090 22.8
2014-Jul-31 22:50 090 23.3
2014-Jul-31 22:45 315 23.3
2014-Jul-31 22:40 315 1 gusting 1 23.3
2014-Jul-31 22:35 23.3
2014-Jul-31 22:30 337 23.9
2014-Jul-31 22:25 23.9
2014-Jul-31 22:20 315 0 gusting 1 23.9
2014-Jul-31 22:15 270 1 gusting 3 23.9
2014-Jul-31 22:10 315 23.9
2014-Jul-31 22:05 292 0 gusting 1 24.4
2014-Jul-31 22:00 270 0 gusting 1 24.4
2014-Jul-31 21:55 270 3 gusting 5 24.4
2014-Jul-31 21:50 247 4 gusting 6 24.4
2014-Jul-31 21:45 315 2 gusting 5 24.4
2014-Jul-31 21:40 315 2 gusting 5 24.4
2014-Jul-31 21:35 247 2 gusting 5 24.4
2014-Jul-31 21:30 315 0 gusting 1 23.9
2014-Jul-31 21:25 23.9
2014-Jul-31 21:20 315 1 gusting 1 23.9
2014-Jul-31 21:15 24.4
2014-Jul-31 21:10 24.4
2014-Jul-31 21:05 247 2 gusting 3 24.4
2014-Jul-31 21:00 292 0 gusting 1 24.4
2014-Jul-31 20:55 292 1 gusting 2 24.4
2014-Jul-31 20:50 292 1 gusting 2 23.9
2014-Jul-31 20:45 24.4
2014-Jul-31 20:40 24.4
2014-Jul-31 20:35 24.4
2014-Jul-31 20:30 24.4
2014-Jul-31 20:25 24.4
2014-Jul-31 20:20 24.4
2014-Jul-31 20:15 337 0 gusting 1 23.9
2014-Jul-31 20:10 022 0 gusting 1 23.9
2014-Jul-31 20:05 022 1 gusting 2 23.9
2014-Jul-31 20:00 23.9
2014-Jul-31 19:55 022 0 gusting 1 23.9
2014-Jul-31 19:50 23.9
2014-Jul-31 19:45 337 23.9
2014-Jul-31 19:40 337 24.4
2014-Jul-31 19:35 24.4
2014-Jul-31 19:30 24.4
2014-Jul-31 19:25 24.4
2014-Jul-31 19:20 022 24.4
2014-Jul-31 19:15 292 0 gusting 1 24.4
2014-Jul-31 19:10 25.0
2014-Jul-31 19:05 270 25.0
2014-Jul-31 19:00 337 0 gusting 1 25.0
2014-Jul-31 18:55 25.0
2014-Jul-31 18:50 292 0 gusting 0 25.6
2014-Jul-31 18:45 25.6
2014-Jul-31 18:40 270 25.6
2014-Jul-31 18:35 247 2 gusting 3 25.6
2014-Jul-31 18:30 292 0 gusting 1 25.6
2014-Jul-31 18:25 202 0 gusting 1 25.6
2014-Jul-31 18:20 247 0 gusting 1 26.1
2014-Jul-31 18:15 270 0 gusting 1 26.1
2014-Jul-31 18:10 270 0 gusting 1 26.1
2014-Jul-31 18:05 225 1 gusting 3 26.1
2014-Jul-31 18:00 270 1 gusting 2 26.1
2014-Jul-31 17:55 270 0 gusting 2 26.7
2014-Jul-31 17:50 292 2 gusting 3 26.7
2014-Jul-31 17:45 225 2 gusting 4 26.7
2014-Jul-31 17:40 247 1 gusting 2 27.2
2014-Jul-31 17:35 225 2 gusting 3 27.2
2014-Jul-31 17:30 247 1 gusting 1 27.8
2014-Jul-31 17:25 270 0 gusting 1 28.3
2014-Jul-31 17:20 337 0 gusting 1 28.3
2014-Jul-31 17:15 225 0 gusting 1 28.9
2014-Jul-31 17:10 247 0 gusting 0 28.9
2014-Jul-31 17:05 270 2 gusting 3 29.4
2014-Jul-31 17:00 247 1 gusting 2 30.0
2014-Jul-31 16:55 225 0 gusting 1 30.0
2014-Jul-31 16:50 30.6
2014-Jul-31 16:45 247 2 gusting 4 30.6
2014-Jul-31 16:40 247 1 gusting 2 31.1
2014-Jul-31 16:35 247 1 gusting 3 31.7
2014-Jul-31 16:30 315 0 gusting 1 31.7
2014-Jul-31 16:25 202 1 gusting 3 31.7
2014-Jul-31 16:20 270 0 gusting 1 31.7
2014-Jul-31 16:15 292 2 gusting 4 31.7
2014-Jul-31 16:10 225 3 gusting 4 32.2
2014-Jul-31 16:05 270 1 gusting 1 32.2
2014-Jul-31 16:00 270 1 gusting 1 32.2
2014-Jul-31 15:55 202 1 gusting 1 32.2
2014-Jul-31 15:50 270 2 gusting 3 31.7
2014-Jul-31 15:45 270 3 gusting 4 31.7
2014-Jul-31 15:40 247 1 gusting 2 31.7
2014-Jul-31 15:35 270 4 gusting 5 32.2
2014-Jul-31 15:30 247 5 gusting 6 32.2
2014-Jul-31 15:25 270 2 gusting 3 32.8
2014-Jul-31 15:20 247 3 gusting 6 32.8
2014-Jul-31 15:15 270 4 gusting 6 32.8
2014-Jul-31 15:10 270 3 gusting 4 33.3
2014-Jul-31 15:05 247 4 gusting 6 33.3
2014-Jul-31 15:00 225 4 gusting 6 33.9
2014-Jul-31 14:55 180 2 gusting 5 33.9
2014-Jul-31 14:50 292 3 gusting 5 34.4
2014-Jul-31 14:45 247 3 gusting 6 34.4
2014-Jul-31 14:40 270 5 gusting 6 34.4
2014-Jul-31 14:35 180 2 gusting 4 34.4
2014-Jul-31 14:30 180 4 gusting 6 34.4
2014-Jul-31 14:25 112 3 gusting 5 33.9
2014-Jul-31 14:20 225 5 gusting 9 33.9
2014-Jul-31 14:15 180 6 gusting 8 34.4
2014-Jul-31 14:10 135 4 gusting 8 34.4
2014-Jul-31 14:05 180 2 gusting 3 34.4
2014-Jul-31 14:00 135 5 gusting 8 34.4
2014-Jul-31 13:55 225 5 gusting 8 34.4
2014-Jul-31 13:50 045 2 gusting 5 34.4
2014-Jul-31 13:45 202 6 gusting 8 34.4
2014-Jul-31 13:40 180 4 gusting 6 34.4
2014-Jul-31 13:35 180 6 gusting 8 34.4
2014-Jul-31 13:30 135 3 gusting 6 34.4
2014-Jul-31 13:25 202 4 gusting 6 34.4
2014-Jul-31 13:20 135 5 gusting 10 33.9
2014-Jul-31 13:15 202 7 gusting 11 34.4
2014-Jul-31 13:10 202 3 gusting 6 34.4
2014-Jul-31 13:05 157 5 gusting 7 34.4
2014-Jul-31 13:00 157 6 gusting 9 35.0
2014-Jul-31 12:55 180 5 gusting 8 35.0
2014-Jul-31 12:50 202 7 gusting 11 35.0
2014-Jul-31 12:45 135 6 gusting 9 35.6
2014-Jul-31 12:40 202 3 gusting 6 35.0
2014-Jul-31 12:35 112 6 gusting 10 35.0
2014-Jul-31 12:30 180 4 gusting 6 35.0
2014-Jul-31 12:25 202 5 gusting 8 35.0
2014-Jul-31 12:20 202 4 gusting 8 35.0
2014-Jul-31 12:15 180 6 gusting 9 35.0
2014-Jul-31 12:10 157 6 gusting 8 35.0
2014-Jul-31 12:05 180 6 gusting 9 35.6
2014-Jul-31 12:00 270 4 gusting 6 35.0
2014-Jul-31 11:55 180 6 gusting 9 35.0
2014-Jul-31 11:50 157 6 gusting 10 35.0
2014-Jul-31 11:45 157 6 gusting 10 35.6
2014-Jul-31 11:40 225 6 gusting 9 35.6
2014-Jul-31 11:35 135 2 gusting 6 35.0
2014-Jul-31 11:30 135 6 gusting 7 35.6
2014-Jul-31 11:25 202 6 gusting 10 35.0
2014-Jul-31 11:20 225 5 gusting 7 35.0
2014-Jul-31 11:15 157 6 gusting 8 34.4
2014-Jul-31 11:10 135 6 gusting 7 34.4
2014-Jul-31 11:05 180 6 gusting 9 35.0
2014-Jul-31 11:00 135 5 gusting 7 35.0
2014-Jul-31 10:55 225 4 gusting 6 35.0
2014-Jul-31 10:50 112 5 gusting 7 35.0
2014-Jul-31 10:45 202 6 gusting 7 35.0
2014-Jul-31 10:40 157 4 gusting 6 35.0
2014-Jul-31 10:35 090 4 gusting 6 35.0
2014-Jul-31 10:30 157 3 gusting 6 35.0
2014-Jul-31 10:24 135 6 gusting 8 35.0
2014-Jul-31 10:20 247 3 gusting 6 35.0
2014-Jul-31 10:15 225 4 gusting 6 34.4
2014-Jul-31 10:10 270 2 gusting 4 35.0
2014-Jul-31 10:05 315 4 gusting 6 35.0
2014-Jul-31 10:00 247 2 gusting 4 35.0
2014-Jul-31 09:55 247 3 gusting 5 35.0
2014-Jul-31 09:50 202 6 gusting 15 35.0
2014-Jul-31 09:45 292 3 gusting 4 34.4
2014-Jul-31 09:40 090 6 gusting 8 34.4
2014-Jul-31 09:35 157 6 gusting 7 34.4
2014-Jul-31 09:30 180 3 gusting 6 34.4
2014-Jul-31 09:25 202 4 gusting 6 34.4
2014-Jul-31 09:20 157 2 gusting 3 34.4
2014-Jul-31 09:15 135 1 gusting 4 34.4
2014-Jul-31 09:10 225 3 gusting 6 33.9
2014-Jul-31 09:05 157 3 gusting 5 33.9
2014-Jul-31 09:00 157 5 gusting 8 33.9
2014-Jul-31 08:55 180 2 gusting 4 33.9
2014-Jul-31 08:50 157 3 gusting 6 33.9
2014-Jul-31 08:45 202 4 gusting 6 34.4
2014-Jul-31 08:40 180 5 gusting 9 34.4
2014-Jul-31 08:35 157 4 gusting 6 34.4
2014-Jul-31 08:30 067 3 gusting 5 33.9
2014-Jul-31 08:25 180 5 gusting 7 34.4
2014-Jul-31 08:20 135 2 gusting 6 34.4
2014-Jul-31 08:15 135 1 gusting 3 34.4
2014-Jul-31 08:10 090 4 gusting 5 33.9
2014-Jul-31 08:05 247 2 gusting 4 33.9
2014-Jul-31 08:00 157 4 gusting 6 33.9
2014-Jul-31 07:55 157 4 gusting 6 33.9
2014-Jul-31 07:50 180 2 gusting 5 33.9
2014-Jul-31 07:45 180 1 gusting 3 33.9
2014-Jul-31 07:40 112 4 gusting 6 33.3
2014-Jul-31 07:35 180 2 gusting 4 33.3
2014-Jul-31 07:30 135 4 gusting 6 32.8
2014-Jul-31 07:25 180 5 gusting 6 33.3
2014-Jul-31 07:20 202 2 gusting 5 33.3
2014-Jul-31 07:15 225 5 gusting 6 33.3
2014-Jul-31 07:10 112 1 gusting 4 33.3
2014-Jul-31 07:05 135 2 gusting 4 32.8
2014-Jul-31 07:00 090 3 gusting 5 32.8
2014-Jul-31 06:55 202 2 gusting 4 32.2
2014-Jul-31 06:50 090 2 gusting 3 32.2
2014-Jul-31 06:45 202 2 gusting 5 31.7
2014-Jul-31 06:40 157 2 gusting 5 31.7
2014-Jul-31 06:35 135 1 gusting 3 31.7
2014-Jul-31 06:30 135 4 gusting 5 31.7
2014-Jul-31 06:25 090 4 gusting 6 31.7
2014-Jul-31 06:20 157 1 gusting 3 31.7
2014-Jul-31 06:15 135 1 gusting 3 31.7
2014-Jul-31 06:10 157 3 gusting 5 31.1
2014-Jul-31 06:05 225 1 gusting 2 31.1
2014-Jul-31 05:47 180 3 gusting 5 31.1
2014-Jul-31 05:45 180 3 gusting 4 31.1
2014-Jul-31 04:50 090 0 gusting 1 25.6
2014-Jul-31 04:45 090 1 gusting 2 25.0
2014-Jul-31 04:40 090 1 gusting 2 24.4
2014-Jul-31 04:35 090 24.4
2014-Jul-31 04:30 090 0 gusting 1 23.9
2014-Jul-31 04:25 090 23.3
2014-Jul-31 04:07 090 0 gusting 1 22.2
2014-Jul-31 04:05 112 21.7
2014-Jul-31 04:00 090 0 gusting 1 21.7
2014-Jul-31 03:55 112 0 gusting 2 21.7
2014-Jul-31 03:50 045 21.1
2014-Jul-31 03:45 022 21.1
2014-Jul-31 03:40 090 0 gusting 0 21.1
2014-Jul-31 03:35 067 0 gusting 0 21.1
2014-Jul-31 03:30 090 21.1
2014-Jul-31 03:12 067 21.7
2014-Jul-31 03:10 045 21.7
2014-Jul-31 03:05 090 1 gusting 2 21.7
2014-Jul-31 03:01 112 0 gusting 1 21.7
2014-Jul-31 02:54 090 21.1
2014-Jul-31 02:46 067 21.7
2014-Jul-31 02:45 090 21.7
2014-Jul-31 02:40 090 1 gusting 1 21.7
2014-Jul-31 02:35 090 21.7
2014-Jul-31 02:30 090 21.7
2014-Jul-31 02:25 090 0 gusting 1 21.7
2014-Jul-31 02:20 090 0 gusting 1 21.7
2014-Jul-31 02:15 045 21.7
2014-Jul-31 01:57 090 1 gusting 1 21.7
2014-Jul-31 01:55 090 21.7
2014-Jul-31 01:50 067 22.2
2014-Jul-31 01:45 112 0 gusting 1 22.2
2014-Jul-31 01:40 090 1 gusting 1 22.2
2014-Jul-31 01:35 045 22.2
2014-Jul-31 01:30 090 0 gusting 1 22.2
2014-Jul-31 01:25 135 0 gusting 1 22.2
2014-Jul-31 01:20 090 0 gusting 1 22.2
2014-Jul-31 01:15 112 22.2
2014-Jul-31 01:10 067 22.2
2014-Jul-31 01:05 045 1 gusting 3 22.2
2014-Jul-31 01:00 090 1 gusting 1 22.2
2014-Jul-31 00:55 090 1 gusting 2 22.2
2014-Jul-31 00:50 090 22.2
2014-Jul-31 00:45 135 22.8
2014-Jul-31 00:40 067 0 gusting 1 22.8
2014-Jul-31 00:35 067 2 gusting 3 22.8
2014-Jul-31 00:30 112 1 gusting 2 22.2
2014-Jul-31 00:25 090 22.2
2014-Jul-31 00:20 067 0 gusting 1 22.8
2014-Jul-31 00:15 090 0 gusting 0 22.8
2014-Jul-31 00:10 112 22.8
2014-Jul-31 00:05 090 0 gusting 1 22.8
2014-Jul-31 00:00 090 22.8
2014-Jul-30 23:55 23.3
2014-Jul-30 23:50 022 0 gusting 1 22.8
2014-Jul-30 23:45 22.8
2014-Jul-30 23:40 045 0 gusting 1 22.8
2014-Jul-30 23:35 045 22.8
2014-Jul-30 23:30 045 22.2
2014-Jul-30 23:25 045 22.2
2014-Jul-30 23:20 090 22.2
2014-Jul-30 23:15 090 0 gusting 1 22.2
2014-Jul-30 23:10 090 22.2
2014-Jul-30 23:05 090 22.2
2014-Jul-30 23:00 112 22.2
2014-Jul-30 22:55 022 22.8
2014-Jul-30 22:50 22.8
2014-Jul-30 22:45 090 22.8
2014-Jul-30 22:40 090 0 gusting 0 22.8
2014-Jul-30 22:35 090 0 gusting 1 22.8
2014-Jul-30 22:30 112 22.8
2014-Jul-30 22:25 067 1 gusting 2 22.8
2014-Jul-30 22:05 090 23.3
2014-Jul-30 22:00 090 22.8
2014-Jul-30 21:55 090 1 gusting 1 22.8
2014-Jul-30 21:50 045 22.8
2014-Jul-30 21:45 292 23.3
2014-Jul-30 21:40 090 23.3
2014-Jul-30 21:35 112 0 gusting 0 23.3
2014-Jul-30 21:30 112 23.3
2014-Jul-30 21:25 090 23.3
2014-Jul-30 21:20 090 23.3
2014-Jul-30 21:15 090 23.3
2014-Jul-30 21:10 045 23.3
2014-Jul-30 21:05 067 1 gusting 1 23.3
2014-Jul-30 21:00 090 1 gusting 1 23.3
2014-Jul-30 20:55 112 23.3
2014-Jul-30 20:50 090 23.3
2014-Jul-30 20:45 315 23.9
2014-Jul-30 20:40 247 23.9
2014-Jul-30 20:35 180 23.9
2014-Jul-30 20:30 045 23.9
2014-Jul-30 20:25 090 0 gusting 1 23.9
2014-Jul-30 20:20 090 23.9
2014-Jul-30 20:15 090 23.9
2014-Jul-30 20:10 090 0 gusting 2 23.9
2014-Jul-30 20:05 090 1 gusting 2 23.9
2014-Jul-30 20:00 090 23.9
2014-Jul-30 19:55 202 24.4
2014-Jul-30 19:50 112 24.4
2014-Jul-30 19:45 112 24.4
2014-Jul-30 19:40 090 24.4
2014-Jul-30 19:35 090 0 gusting 1 24.4
2014-Jul-30 19:30 090 24.4
2014-Jul-30 19:25 157 24.4
2014-Jul-30 19:20 225 25.0
2014-Jul-30 19:15 090 0 gusting 1 25.0
2014-Jul-30 19:10 090 25.0
2014-Jul-30 19:05 090 25.0
2014-Jul-30 19:00 157 25.0
2014-Jul-30 18:55 112 25.0
2014-Jul-30 18:50 045 0 gusting 1 25.0
2014-Jul-30 18:45 090 0 gusting 1 25.0
2014-Jul-30 18:40 090 0 gusting 1 25.0
2014-Jul-30 18:22 180 25.6
2014-Jul-30 18:20 202 0 gusting 1 25.6
2014-Jul-30 18:15 135 25.6
2014-Jul-30 18:10 337 25.6
2014-Jul-30 18:05 292 26.1
2014-Jul-30 18:00 26.1
2014-Jul-30 17:55 270 26.1
2014-Jul-30 17:50 315 1 gusting 1 26.1
2014-Jul-30 17:45 315 2 gusting 3 26.7
2014-Jul-30 17:40 292 1 gusting 2 26.7
2014-Jul-30 17:35 315 3 gusting 3 27.2
2014-Jul-30 17:30 315 2 gusting 3 27.8
2014-Jul-30 17:25 315 1 gusting 4 27.8
2014-Jul-30 17:20 292 1 gusting 2 28.3
2014-Jul-30 17:15 202 0 gusting 2 28.3
2014-Jul-30 17:10 157 0 gusting 1 28.9
2014-Jul-30 17:05 180 2 gusting 3 28.9
2014-Jul-30 17:00 247 1 gusting 2 28.9
2014-Jul-30 16:55 247 2 gusting 4 29.4
2014-Jul-30 16:50 157 2 gusting 4 30.0
2014-Jul-30 16:45 180 3 gusting 4 30.0
2014-Jul-30 16:40 180 2 gusting 3 30.0
2014-Jul-30 16:35 157 1 gusting 3 30.6
2014-Jul-30 16:30 225 0 gusting 1 30.6
2014-Jul-30 16:25 157 2 gusting 4 30.6
2014-Jul-30 16:20 180 2 gusting 3 30.6
2014-Jul-30 16:15 180 2 gusting 4 31.1
2014-Jul-30 16:10 202 3 gusting 6 31.7
2014-Jul-30 16:05 180 1 gusting 3 32.2
2014-Jul-30 16:00 180 2 gusting 4 32.2
2014-Jul-30 15:55 180 1 gusting 3 32.2
2014-Jul-30 15:50 090 32.2
2014-Jul-30 15:45 180 2 gusting 4 32.2
2014-Jul-30 15:40 180 2 gusting 3 32.8
2014-Jul-30 15:35 135 3 gusting 6 32.8
2014-Jul-30 15:30 225 1 gusting 3 32.8
2014-Jul-30 15:25 157 3 gusting 5 32.8
2014-Jul-30 15:20 157 4 gusting 7 33.3
2014-Jul-30 15:15 247 2 gusting 4 33.3
2014-Jul-30 15:10 157 4 gusting 5 33.3
2014-Jul-30 15:05 202 5 gusting 6 33.3
2014-Jul-30 15:00 202 4 gusting 6 33.3
2014-Jul-30 14:55 180 5 gusting 6 33.3
2014-Jul-30 14:36 135 1 gusting 2 33.9
2014-Jul-30 14:35 180 4 gusting 5 33.9
2014-Jul-30 14:30 112 2 gusting 4 33.9
2014-Jul-30 14:25 157 3 gusting 6 33.9
2014-Jul-30 14:20 157 4 gusting 6 34.4
2014-Jul-30 14:15 180 6 gusting 6 34.4
2014-Jul-30 14:10 157 5 gusting 7 35.0
2014-Jul-30 14:05 180 1 gusting 4 35.0
2014-Jul-30 14:00 112 1 gusting 3 34.4
2014-Jul-30 13:55 202 2 gusting 6 34.4
2014-Jul-30 13:50 247 4 gusting 7 34.4
2014-Jul-30 13:45 225 4 gusting 5 34.4
2014-Jul-30 13:40 225 2 gusting 5 35.0
2014-Jul-30 13:35 247 2 gusting 5 35.0
2014-Jul-30 13:30 225 6 gusting 8 35.6
2014-Jul-30 13:25 157 4 gusting 6 36.1
2014-Jul-30 13:20 337 5 gusting 6 36.1
2014-Jul-30 13:15 270 1 gusting 3 36.1
2014-Jul-30 13:10 180 1 gusting 4 36.1
2014-Jul-30 13:05 090 2 gusting 4 36.1
2014-Jul-30 13:00 225 4 gusting 5 36.1
2014-Jul-30 12:55 090 2 gusting 3 36.1
2014-Jul-30 12:50 247 3 gusting 6 36.1
2014-Jul-30 12:45 180 3 gusting 6 36.1
2014-Jul-30 12:40 180 5 gusting 7 36.1
2014-Jul-30 12:35 090 0 gusting 2 36.1
2014-Jul-30 12:30 270 5 gusting 7 36.7
2014-Jul-30 12:25 270 5 gusting 9 36.7
2014-Jul-30 12:20 202 3 gusting 6 36.7
2014-Jul-30 12:15 270 3 gusting 5 36.1
2014-Jul-30 12:10 180 0 gusting 1 35.6
2014-Jul-30 12:05 270 2 gusting 4 35.0
2014-Jul-30 12:00 292 3 gusting 4 35.0
2014-Jul-30 11:55 270 0 gusting 1 34.4
2014-Jul-30 11:50 202 3 gusting 4 33.3
2014-Jul-30 11:45 247 5 gusting 6 33.3
2014-Jul-30 11:40 337 0 gusting 2 33.3
2014-Jul-30 11:35 225 1 gusting 2 33.3
2014-Jul-30 11:30 202 6 gusting 10 32.8
2014-Jul-30 11:25 270 6 gusting 10 32.8
2014-Jul-30 11:20 202 4 gusting 6 33.9
2014-Jul-30 11:15 247 5 gusting 6 35.0
2014-Jul-30 11:10 337 6 gusting 8 36.1
2014-Jul-30 11:05 315 2 gusting 6 36.7
2014-Jul-30 11:00 36.7
2014-Jul-30 10:55 270 1 gusting 4 36.7
2014-Jul-30 10:50 337 2 gusting 4 36.7
2014-Jul-30 10:45 36.1
2014-Jul-30 10:40 022 2 gusting 5 36.1
2014-Jul-30 10:35 35.6
2014-Jul-30 10:30 045 2 gusting 3 35.6
2014-Jul-30 10:25 270 1 gusting 4 35.0
2014-Jul-30 10:20 315 0 gusting 2 34.4
2014-Jul-30 10:15 315 3 gusting 5 33.9
2014-Jul-30 10:10 022 5 gusting 6 34.4
2014-Jul-30 10:05 315 6 gusting 9 35.0
2014-Jul-30 09:47 270 6 gusting 8 35.0
2014-Jul-30 09:45 247 4 gusting 6 35.0
2014-Jul-30 09:40 202 2 gusting 4 34.4
2014-Jul-30 09:35 247 5 gusting 6 35.0
2014-Jul-30 09:30 202 5 gusting 6 35.0
2014-Jul-30 09:25 292 5 gusting 6 35.6
2014-Jul-30 09:20 315 3 gusting 5 35.6
2014-Jul-30 09:15 247 3 gusting 4 36.1
2014-Jul-30 09:10 315 4 gusting 6 36.7
2014-Jul-30 08:52 202 0 gusting 1 35.6
2014-Jul-30 08:50 022 4 gusting 7 36.1
2014-Jul-30 08:45 090 36.1
2014-Jul-30 08:40 045 0 gusting 2 35.6
2014-Jul-30 08:35 292 3 gusting 4 36.1
2014-Jul-30 08:30 270 0 gusting 1 36.1
2014-Jul-30 08:25 337 3 gusting 4 36.1
2014-Jul-30 08:20 022 1 gusting 3 35.0
2014-Jul-30 08:15 35.0
2014-Jul-30 08:10 112 3 gusting 4 35.0
2014-Jul-30 08:05 090 0 gusting 2 34.4
2014-Jul-30 07:47 022 6 gusting 8 33.3
2014-Jul-30 07:45 33.3
2014-Jul-30 07:40 33.3
2014-Jul-30 07:35 022 5 gusting 7 33.9
2014-Jul-30 07:30 33.3
2014-Jul-30 07:25 022 3 gusting 11 33.3
2014-Jul-30 07:20 32.8
2014-Jul-30 07:15 135 3 gusting 5 32.8
2014-Jul-30 07:10 045 5 gusting 7 33.3
2014-Jul-30 07:05 045 3 gusting 6 33.3
2014-Jul-30 07:00 292 1 gusting 3 33.3